Casper, WY

6:28 AM MST on December 06, 2019 (GMT -0700)
Natrona County International

Weather History for KCPR - October, 2019

Change the Weather History Date:

Wednesday, October 16, 2019

  Actual Average Record
Temperature  
Mean Temperature 52 °F 45 °F  
Max Temperature 74 °F 59 °F 83 °F (1991)
Min Temperature 30 °F 31 °F 18 °F (1992)
Degree Days  
Heating Degree Days 13 20  
Month to date heating degree days 345 279  
Since 1 July heating degree days 516 564  
Cooling Degree Days 0 0  
Month to date cooling degree days 0 0  
Year to date cooling degree days 441 422  
Growing Degree Days 9 (Base 50)    
Moisture  
Dew Point 21 °F    
Average Humidity 45    
Maximum Humidity 78    
Minimum Humidity 11    
Precipitation  
Precipitation 0.00 in 0.04 in 2.06 in (1998)
Month to date precipitation 0.42 0.61  
Year to date precipitation 11.12 10.77  
Snow  
Snow 0.00 in 0.20 in - ()
Month to date snowfall 2.4 3.3  
Since 1 July snowfall 2.4 5.1  
Since 1 September snowfall 2.4 5.1  
Snow Depth 0.00 in    
Sea Level Pressure  
Sea Level Pressure 29.97 in    
Wind  
Wind Speed 14 mph (SW)    
Max Wind Speed 30 mph    
Max Gust Speed 36 mph    
Visibility 10 miles    
Events      
T = Trace of Precipitation, MM = Missing Value Source: NWS Daily Summary

Daily Weather History Graph

Daily Weather History Graph

Search for Another Location

Airport or City:

Astronomy

Oct. 16, 2019 Rise Set
Actual Time 7:20 AM MDT 6:21 PM MDT
Civil Twilight 6:51 AM MDT 6:50 PM MDT
Nautical Twilight 6:18 AM MDT 7:23 PM MDT
Astronomical Twilight 5:45 AM MDT 7:56 PM MDT
Moon 8:13 PM MDT (10/16) 9:56 AM MDT (10/16)
Length of Visible Light 11h 58m
Length of Day
11h 01m
Waning Gibbous, 92% of the Moon is Illuminated
Oct 16
Waning Gibbous
Oct 21
Last Quarter
Oct 27
New
Nov 4
First Quarter
Nov 12
Full

Hourly Weather History & Observations

Time (MDT) Temp. Windchill Dew Point Humidity Pressure Visibility Wind Dir Wind Speed Gust Speed Precip Events Conditions
12:53 AM 30.9 °F 25.2 °F 25.0 °F 79% 30.16 in 10.0 mi NNW 5.8 mph - N/A   Clear
1:53 AM 34.0 °F 26.0 °F 26.1 °F 73% 30.12 in 10.0 mi West 10.4 mph - N/A   Clear
2:53 AM 36.0 °F 30.3 °F 25.0 °F 64% 30.10 in 10.0 mi West 6.9 mph - N/A   Clear
3:53 AM 39.9 °F 33.4 °F 26.1 °F 58% 30.06 in 10.0 mi SW 10.4 mph - N/A   Clear
4:53 AM 42.1 °F 35.2 °F 24.1 °F 49% 30.04 in 10.0 mi SW 12.7 mph - N/A   Clear
5:53 AM 48.0 °F - 24.1 °F 39% 30.03 in 10.0 mi SSW 16.1 mph - N/A   Clear
6:53 AM 46.9 °F - 24.1 °F 41% 30.04 in 10.0 mi SW 12.7 mph 23.0 mph N/A   Clear
7:53 AM 48.0 °F - 24.1 °F 39% 30.05 in 10.0 mi SSW 19.6 mph 26.5 mph N/A   Clear
8:53 AM 53.1 °F - 23.0 °F 31% 30.05 in 10.0 mi SSW 20.7 mph - N/A   Clear
9:53 AM 57.9 °F - 25.0 °F 28% 30.05 in 10.0 mi SW 21.9 mph 32.2 mph N/A   Clear
10:53 AM 62.1 °F - 25.0 °F 24% 30.03 in 10.0 mi SSW 25.3 mph 34.5 mph N/A   Clear
11:53 AM 62.1 °F - 24.1 °F 23% 30.04 in 10.0 mi SSW 25.3 mph - 0.00 in   Clear
12:53 PM 66.0 °F - 21.0 °F 18% 30.01 in 10.0 mi SW 23.0 mph 29.9 mph N/A   Clear
1:53 PM 71.1 °F - 19.9 °F 14% 29.96 in 10.0 mi SW 20.7 mph 29.9 mph N/A   Clear
2:53 PM 73.0 °F - 19.0 °F 13% 29.91 in 10.0 mi WSW 21.9 mph 29.9 mph N/A   Clear
3:53 PM 73.9 °F - 17.1 °F 12% 29.87 in 10.0 mi West 18.4 mph 25.3 mph N/A   Clear
4:53 PM 73.0 °F - 15.1 °F 11% 29.85 in 10.0 mi West 15.0 mph 23.0 mph N/A   Clear
5:53 PM 66.0 °F - 16.0 °F 15% 29.85 in 10.0 mi WSW 11.5 mph - N/A   Clear
6:53 PM 54.0 °F - 19.0 °F 25% 29.89 in 10.0 mi West 8.1 mph - N/A   Clear
7:53 PM 53.1 °F - 19.0 °F 26% 29.90 in 10.0 mi SW 4.6 mph - N/A   Clear
8:53 PM 50.0 °F - 17.1 °F 27% 29.88 in 10.0 mi SW 4.6 mph - N/A   Clear
9:53 PM 48.9 °F - 16.0 °F 27% 29.86 in 10.0 mi WSW 4.6 mph - N/A   Clear
10:53 PM 46.0 °F 44.8 °F 17.1 °F 31% 29.84 in 10.0 mi West 3.5 mph - N/A   Clear
11:53 PM 46.9 °F - 19.0 °F 33% 29.82 in 10.0 mi SSW 9.2 mph - N/A   Clear